Location: Winthrop
(48.4780°N, 120.1850°W)
Time: 21:49:59
(UTC-08:00)

Vanguard 2 - Visible Passes

Search period start: 05 February 2023 00:00
Search period end: 15 February 2023 00:00
Orbit: 553 x 2930 km, 32.9° (Epoch: 05 February)

Date Brightness Start Highest point End Pass type
(mag) Time Alt. Az. Time Alt. Az. Time Alt. Az.
05 Feb 11.6 02:00:42 13° SE 02:00:42 13° SE 02:02:03 10° SE visible
05 Feb 11.2 04:02:02 18° SSW 04:02:02 18° SSW 04:06:58 10° S visible
05 Feb 10.7 19:26:39 10° S 19:34:27 21° SE 19:35:04 20° SE visible
05 Feb 10.8 21:31:16 10° SW 21:36:24 27° SSW 21:36:24 27° SSW visible
06 Feb 11.6 02:16:45 13° SSE 02:16:45 13° SSE 02:17:57 10° SSE visible
06 Feb 11.4 04:18:06 13° SSW 04:18:06 13° SSW 04:20:57 10° SSW visible
06 Feb 10.6 19:41:57 10° SSW 19:50:32 25° SE 19:51:01 25° SE visible
06 Feb 10.8 21:47:33 10° SW 21:52:21 27° SW 21:52:21 27° SW visible
07 Feb 11.6 02:32:49 12° SSE 02:32:49 12° SSE 02:33:31 10° SSE visible
07 Feb 10.4 19:57:39 10° SSW 20:06:42 29° SSE 20:06:56 29° SSE visible
07 Feb 10.8 22:03:57 10° WSW 22:08:16 25° SW 22:08:16 25° SW visible
08 Feb 10.8 18:11:17 10° SSE 18:15:30 13° SE 18:20:27 10° ESE visible
08 Feb 10.3 20:13:36 10° SW 20:22:49 33° SSE 20:22:49 33° SSE visible
08 Feb 10.9 22:20:27 10° WSW 22:24:08 23° SW 22:24:08 23° SW visible
09 Feb 10.6 18:25:43 10° S 18:31:29 17° SE 18:37:20 12° ESE visible
09 Feb 10.2 20:29:44 10° SW 20:38:39 36° SSE 20:38:39 36° SSE visible
09 Feb 11.0 22:37:02 10° WSW 22:39:58 20° WSW 22:39:58 20° WSW visible
10 Feb 10.4 18:40:58 10° S 18:47:33 22° SE 18:53:08 16° ESE visible
10 Feb 10.2 20:46:01 10° SW 20:54:26 38° S 20:54:26 38° S visible
10 Feb 11.2 22:53:42 10° WSW 22:55:46 17° WSW 22:55:46 17° WSW visible
11 Feb 10.3 18:56:39 10° SSW 19:03:43 25° SSE 19:08:54 19° ESE visible
11 Feb 10.2 21:02:25 10° SW 21:10:13 38° S 21:10:13 38° S visible
11 Feb 11.3 23:10:27 10° WSW 23:11:32 13° WSW 23:11:32 13° WSW visible
12 Feb 10.2 19:12:36 10° SSW 19:19:59 29° SSE 19:24:38 23° ESE visible
12 Feb 10.3 21:18:55 10° WSW 21:25:57 36° SSW 21:25:57 36° SSW visible
13 Feb 10.1 19:28:44 10° SW 19:36:18 32° SSE 19:40:22 26° SE visible
13 Feb 10.4 21:35:30 10° WSW 21:41:41 33° SSW 21:41:41 33° SSW visible
14 Feb 10.3 17:40:30 10° S 17:45:08 17° SE 17:51:09 10° ESE visible
14 Feb 10.0 19:45:02 10° SW 19:52:43 34° SSE 19:56:04 29° SE visible
14 Feb 10.5 21:52:10 10° WSW 21:57:22 28° SW 21:57:22 28° SW visible
